Home   Weather   Bujumbura   Past weeks

Flag for Burundi Past Weather in Bujumbura, Burundi — Yesterday and Last 2 Weeks

Now
73 °F

Passing clouds.


Feels Like: 73 °F
Forecast: 66 / 88 °F
Wind: No wind

Location: Mwanza Airport

Current Time: Dec 6, 2016 at 5:15:01 am

Latest Report: Dec 6, 2016 at 3:00 am


Visibility: N/A

Pressure: 29.95 "Hg (27.33 "Hg at 794m altitude)

Humidity: 83%

Dew Point: 68 °F

Location of BujumburaLocation

Past Weather in Bujumbura — Graph

°F

Bujumbura Temperature Yesterday

Maximum temperature yesterday: 82 °F (at 1:00 pm)
Minimum temperature yesterday: 66 °F (at 5:00 am)
Average temperature yesterday: 77 °F

High & Low Weather Summary for the Past Weeks

 TemperatureHumidityPressure
High88 °F (Nov 22, 2:00 pm)100% (Nov 25, 6:00 am)30.09 "Hg (Nov 25, 6:00 am)
Low61 °F (Nov 25, 5:00 am)48% (Nov 26, 12:00 pm)29.86 "Hg (Nov 21, 5:00 pm)
Average76 °F74%29.98 "Hg
* Reported Nov 21 5:00 am — Dec 6 3:00 am, Bujumbura, Weather by CustomWeather, © 2016

Note: Actual official high and low records may vary slightly from our data, if they occured in-between our weather recording intervals... More about our weather records

Advertising

Bujumbura Weather History for the Previous 24 Hours

Scroll right to see more
 ConditionsComfort  
Time TempWeatherWind HumidityBarometerVisibility
3:00 am
Tue, Dec 6
73 °FPassing clouds.No wind83%29.95 "HgN/A
11:00 pm
Mon, Dec 5
73 °FPassing clouds.No wind78%29.98 "HgN/A
10:00 pm73 °FPassing clouds.6 mph83%29.98 "HgN/A
9:00 pm75 °FPassing clouds.12 mph74%29.98 "HgN/A
8:00 pm77 °FPassing clouds.12 mph69%29.95 "HgN/A
7:00 pm75 °FPassing clouds.12 mph74%29.95 "HgN/A
6:00 pm77 °FPassing clouds.12 mph69%29.92 "HgN/A
5:00 pm79 °FPartly sunny.14 mph65%29.92 "HgN/A
4:00 pm81 °FPartly sunny.12 mph51%29.92 "HgN/A
3:00 pm82 °FPartly sunny.12 mph51%29.95 "HgN/A
2:00 pm82 °FPartly sunny.14 mph48%29.95 "HgN/A
1:00 pm82 °FPartly sunny.15 mph48%29.98 "HgN/A
11:00 am81 °FScattered clouds.16 mph48%30.01 "HgN/A
10:00 am81 °FScattered clouds.14 mph62%30.04 "HgN/A
8:00 am77 °FScattered clouds.17 mph83%30.01 "HgN/A
7:00 am72 °FScattered clouds.6 mph83%30.01 "HgN/A
5:00 am66 °FPassing clouds.No wind100%29.98 "HgN/A
Weather by CustomWeather, © 2016

See weather overviewHow to use our weather pages